Location: Zagreb
(45.8000°N, 16.0000°E)
Time: 11:10:56
(UTC+02:00)

Tiros 1 - All Passes

Search period start: 15 July 2024 00:00
Search period end: 25 July 2024 00:00
Orbit: 624 x 656 km, 48.4° (Epoch: 14 July)

Date Brightness Start Highest point End Pass type
(mag) Time Alt. Az. Time Alt. Az. Time Alt. Az.
15 Jul - 15:36:06 10° SSW 15:40:12 31° SE 15:44:17 10° E daylight
15 Jul - 17:17:17 10° WSW 17:21:57 88° NNW 17:26:35 10° ENE daylight
15 Jul - 18:59:38 10° W 19:04:14 62° N 19:08:48 10° E daylight
15 Jul - 20:41:51 10° WNW 20:46:28 81° SSW 20:51:03 10° ESE daylight
15 Jul - 22:24:22 10° W 22:28:04 24° SW 22:31:44 10° SSE visible
16 Jul - 14:20:01 10° SSE 14:22:30 14° SE 14:24:58 10° ESE daylight
16 Jul - 15:59:17 10° SW 16:03:50 55° SSE 16:08:21 10° ENE daylight
16 Jul - 17:41:15 10° W 17:45:53 68° N 17:50:29 10° ENE daylight
16 Jul - 19:23:36 10° WNW 19:28:13 70° NNE 19:32:48 10° E daylight
16 Jul - 21:05:46 10° WNW 21:10:13 49° SSW 21:14:38 10° SE daylight
16 Jul - 22:49:42 10° WSW 22:51:26 12° SW 22:53:10 10° SSW visible
17 Jul - 14:41:58 10° SSW 14:45:55 28° SE 14:49:52 10° E daylight
17 Jul - 16:22:56 10° WSW 16:27:37 87° SSE 16:32:15 10° ENE daylight
17 Jul - 18:05:15 10° W 18:09:52 62° N 18:14:26 10° E daylight
17 Jul - 19:47:29 10° WNW 19:52:07 87° SSW 19:56:43 10° ESE daylight
17 Jul - 21:29:54 10° W 21:33:47 27° SW 21:37:40 10° SSE visible
18 Jul - 13:26:21 10° SSE 13:28:15 12° SE 13:30:08 10° ESE daylight
18 Jul - 15:05:00 10° SW 15:09:30 50° SSE 15:14:00 10° ENE daylight
18 Jul - 16:46:50 10° W 16:51:30 71° N 16:56:07 10° ENE daylight
18 Jul - 18:29:13 10° WNW 18:33:51 68° N 18:38:26 10° E daylight
18 Jul - 20:11:22 10° WNW 20:15:53 55° SSW 20:20:21 10° SE daylight
18 Jul - 21:54:48 10° WSW 21:57:11 14° SW 21:59:34 10° SSW visible
19 Jul - 13:47:50 10° SSW 13:51:37 25° SE 13:55:24 10° E daylight
19 Jul - 15:28:34 10° WSW 15:33:15 81° SSE 15:37:54 10° ENE daylight
19 Jul - 17:10:51 10° W 17:15:28 62° N 17:20:04 10° E daylight
19 Jul - 18:53:06 10° WNW 18:57:45 87° NNE 19:02:22 10° ESE daylight
19 Jul - 20:35:26 10° W 20:39:30 31° SW 20:43:31 10° SSE daylight
20 Jul - 12:33:07 10° SE 12:33:59 10° SE 12:34:50 10° ESE daylight
20 Jul - 14:10:43 10° SW 14:15:10 44° SSE 14:19:36 10° ENE daylight
20 Jul - 15:52:26 10° W 15:57:07 74° NNW 16:01:45 10° ENE daylight
20 Jul - 17:34:49 10° WNW 17:39:27 66° N 17:44:03 10° E daylight
20 Jul - 19:16:58 10° WNW 19:21:33 61° SSW 19:26:05 10° SE daylight
20 Jul - 21:00:05 10° W 21:02:55 16° SW 21:05:45 10° S daylight
21 Jul - 12:53:44 10° S 12:57:19 22° SE 13:00:53 10° E daylight
21 Jul - 14:34:11 10° WSW 14:38:52 74° SSE 14:43:31 10° ENE daylight
21 Jul - 16:16:26 10° W 16:21:04 63° N 16:25:40 10° ENE daylight
21 Jul - 17:58:43 10° WNW 18:03:22 82° NNE 18:07:59 10° ESE daylight
21 Jul - 19:40:59 10° W 19:45:11 35° SW 19:49:21 10° SSE daylight
22 Jul - 13:16:26 10° SW 13:20:50 40° SSE 13:25:11 10° ENE daylight
22 Jul - 14:58:00 10° WSW 15:02:43 78° NNW 15:07:23 10° ENE daylight
22 Jul - 16:40:24 10° WNW 16:45:02 64° N 16:49:38 10° E daylight
22 Jul - 18:22:34 10° WNW 18:27:11 68° SSW 18:31:45 10° ESE daylight
22 Jul - 20:05:26 10° W 20:08:38 19° SW 20:11:49 10° S daylight
23 Jul - 11:59:41 10° S 12:03:00 19° SE 12:06:19 10° E daylight
23 Jul - 13:39:49 10° WSW 13:44:29 68° SSE 13:49:08 10° ENE daylight
23 Jul - 15:21:58 10° W 15:26:39 64° N 15:31:16 10° ENE daylight
23 Jul - 17:04:18 10° WNW 17:08:59 78° NNE 17:13:36 10° ESE daylight
23 Jul - 18:46:32 10° WNW 18:50:51 39° SSW 18:55:08 10° SE daylight
24 Jul - 12:22:11 10° SSW 12:26:28 35° SE 12:30:44 10° E daylight
24 Jul - 14:03:35 10° WSW 14:08:18 83° NNW 14:12:59 10° ENE daylight
24 Jul - 15:45:57 10° WNW 15:50:37 63° N 15:55:14 10° E daylight
24 Jul - 17:28:09 10° WNW 17:32:48 75° SSW 17:37:24 10° ESE daylight
24 Jul - 19:10:50 10° W 19:14:20 21° SW 19:17:48 10° S daylight
